User: anonymous   Login
Location: Unspecified
(0.0000°N, 0.0000°E)
Time: 21:22:48
(UTC+00:00)
Language:

Optus B3 - Orbit

View from above orbital plane
View from above orbital plane
View from above satellite
View from above satellite

Ground track
Ground track

The orbit data is extracted from the following two-line orbital elements,

1 23227U 94055A   16043.47652672 -.00000095 +00000-0 +00000-0 0  9997
2 23227 006.6088 053.9538 0005547 257.4066 166.3205 01.00272678078584
Epoch (UTC): 12 February 2016 11:26:11
Eccentricity: 0.0005547
inclination: 6.6088°
perigee height: 35762 km
apogee height: 35809 km
right ascension of ascending node: 53.9538°
argument of perigee: 257.4066°
revolutions per day: 1.00272678
mean anomaly at epoch: 166.3205°
orbit number at epoch: 7858

The dashed part of the orbit path shows where the satellite is in the earth's shadow,  

DLR